Weather in Pilsrundale

Latvia     56°24′57″N   24°00′32″E
temp.,
°C
wind,
m/s
gust,
m/s
humid.,
%
clouds,
%
prec.,
mm/h
press.,
hPa
HPBL,
m
15 april, thu
thu1500:00+4n51073100 0.0 1023327
03:00+5nne41072100 0.0 1023521
06:00+5nne51066100 0.0 1023443
09:00+5nne61166100 0.0 1024551
12:00+9ne795099 0.0 10241157
15:00+11ne7942100 0.0 10231478
18:00+10ne61044100 0.0 10221268
21:00+7nne5115190 0.0 1022416
16 april, fri
fri1600:00+7nne61055100 0.0 1022674
03:00+6nne61163100 0.0 1021690
06:00+5nne61175100 0.0 1020615
09:00+5nne5118599 0.4 1020625
12:00+8ene51077100 0.1 1021826
15:00+8ne51081100 0.3 1021735
18:00+9ene61079100 0.0 1021787
21:00+9ne4883100 0.0 1022305
17 april, sat
sat1700:00+9ne4982100 0.0 1022312
03:00+9ne5108298 0.0 1022429
06:00+7ne4108961 0.0 1023323
09:00+8ene5976100 0.0 1024475
12:00+12e5765100 0.0 1024898
15:00+12e5869100 0.0 1025850
18:00+12e576946 0.0 1025935
21:00+10ene238250 0.0 102653
18 april, sun
sun1800:00+10ene3984100 0.0 1026254
03:00+9ene3786100 0.0 1026190
06:00+9e3889100 0.0 1026231
09:00+10e3984100 0.0 1026357
12:00+13e476989 0.0 1027592
15:00+17ese565195 0.1 10261824
18:00+15e3760100 0.0 1025306
21:00+12ene496967 0.0 1026165
19 april, mon
mon1900:00+9e497954 0.0 1026174
03:00+8e498517 0.0 1026183
06:00+8e4982100 0.0 1026246
09:00+10e4979100 0.0 1026296
12:00+14se6962100 0.0 1027890
15:00+17ese584366 0.0 10252376
18:00+13se3106399 0.0 1025410
21:00+12e41062100 0.0 1025266